Regional Weather Roundup
Issued by NWS

Home | Current Version | Previous Version | Graphics & Text | Print | Product List | Glossary On
Versions: 1 2 3 4 5 6 7 8 9 10 11 12 13 14 15 16 17 18 19 20 21 22 23 24 25 26 27 28 29 30 31 32 33 34 35 36 37 38 39 40 41 42 43 44 45 46 47 48 49 50
000
ASUS43 KLSX 221007
RWRMO

WEATHER SUMMARY FOR MISSOURI
NATIONAL WEATHER SERVICE SPRINGFIELD MO
500 AM CDT TUE APR 22 2014

NOTE: "FAIR" INDICATES FEW OR NO CLOUDS BELOW 12,000 FEET WITH NO
       SIGNIFICANT WEATHER AND/OR OBSTRUCTIONS TO VISIBILITY.
       CURRENT SKY AND/OR WEATHER CONDITIONS ARE NOT AVAILABLE FOR
       CHILLICOTHE AND FARMINGTON.

MOZ001>031-035>038-043-044-053-054-221100-
...NORTHERN AND WESTERN MISSOURI...

CITY           SKY/WX    TMP DP  RH WIND       PRES   REMARKS
KANSAS CTY INT CLEAR     46  35  65 N9        30.11R
KANSAS C DTWN  CLEAR     51  36  56 N8        30.11R
LEE`S SUMMIT   CLEAR     51  34  52 N15       30.11R
ST JOSEPH      CLEAR     44  35  70 N12       30.13S
CHILLICOTHE      N/A     49  35  58 N6        30.11R
KIRKSVILLE     CLEAR     47  36  65 N12G21    30.07R

$$
MOZ066>068-077>081-088>096-101>105-221100-
...SOUTHWEST MISSOURI...

CITY           SKY/WX    TMP DP  RH WIND       PRES   REMARKS
SPRINGFIELD    CLEAR     56  53  90 N12       30.02R
JOPLIN         CLEAR     53  44  71 N9        30.06R

$$
MOZ032>034-039>042-045>050-055>058-069>072-221100-
...CENTRAL MISSOURI...

CITY           SKY/WX    TMP DP  RH WIND       PRES   REMARKS
COLUMBIA       CLEAR     49  40  71 N12       30.03R
JEFFERSON CITY CLEAR     53  41  63 NW6       30.03R
ROLLA          CLEAR     52  45  77 N12       29.99R
SEDALIA        CLEAR     51  40  65 N9        30.07R
WHITEMAN AFB   CLEAR     48  38  66 N9        30.08R
OSAGE BEACH    CLEAR     54  43  66 N6        30.05R

$$
MOZ051-052-059>065-221100-
...EAST CENTRAL MISSOURI...

CITY           SKY/WX    TMP DP  RH WIND       PRES   REMARKS
ST LOUIS INTL  CLEAR     57  46  66 NW12      29.95R
SPIRIT OF STL  CLEAR     53  45  74 NW3       29.97R
ST CHARLES     CLEAR     55  44  66 NW13      29.95R

$$
MOZ072>076-082>087-097>100-106>115-221100-
...SOUTH CENTRAL AND SOUTHEAST MISSOURI...

CITY           SKY/WX    TMP DP  RH WIND       PRES   REMARKS
CAPE GIRARDEAU CLOUDY    62  59  90 N12       29.90R
FARMINGTON     PTCLDY    57  54  88 NW9       29.96R
POPLAR BLUFF   PTCLDY    62  57  83 NW5       29.89R
WEST PLAINS    CLEAR     59  50  72 N12       29.98R

$$



USA.gov is the U.S. government's official web portal to all federal, state and local government web resources and services.